Regional Weather Roundup
Issued by NWS

Home | Current Version | Previous Version | Text Only | Print | Product List | Glossary On
Versions: 1 2 3 4 5 6 7 8 9 10 11 12 13 14 15 16 17 18 19 20 21 22 23 24 25 26 27 28 29 30 31 32 33 34 35 36 37 38 39 40 41 42 43 44 45 46 47 48 49 50
000
ASUS44 KFWD 270410
RWRTX
NORTH TEXAS HOURLY WEATHER ROUNDUP
NATIONAL WEATHER SERVICE FORT WORTH TX
1100 PM CDT THU MAY 26 2016

NOTE: "FAIR" INDICATES FEW OR NO CLOUDS BELOW 12,000 FEET WITH NO
SIGNIFICANT WEATHER AND/OR OBSTRUCTIONS TO VISIBILITY.

TXZ118-119-270500-
DALLAS/FORT WORTH METROPLEX

CITY           SKY/WX    TMP DP  RH WIND       PRES   REMARKS
DFW AIRPORT    TSTM      73  67  81 S17G26    29.80S
DALLAS LOVE    CLOUDY    74  67  78 S14       29.82R THUNDER
FTW MEACHAM    TSTM      67  65  93 S10G26    29.85R FOG
DAL-EXECUTIVE  CLOUDY    72  67  84 S8        29.82R
FTW-ALLIANCE   TSTM      71  67  87 S24G36    29.83R
FTW-NAS-JRB    TSTM      68  65  90 S12G25    29.86R FOG
FTW-SPINKS     TSTM      66  62  86 SW7G25    29.92R
ARLINGTON      TSTM      76  67  73 W12       29.88R
GRAND PRAIRIE  CLOUDY    73  66  79 S9        29.86R
ADDISON        CLOUDY    74  69  85 S10G17    29.84S THUNDER
MESQUITE       CLOUDY    71  68  89 S15       29.82S
LANCASTER      CLOUDY    72  66  81 S8        29.83S
$$

TXZ091>094-102>105-117-120-121-131>134-270500-
NORTH CENTRAL TEXAS

CITY           SKY/WX    TMP DP  RH WIND       PRES   REMARKS
SHRMAN/DENISON CLOUDY    69  62  77 S18       29.80S
GAINESVILLE    CLOUDY    72  65  80 S15G25    29.81R
BOWIE          TSTM      72  67  85 S18G29    29.87R
BRIDGEPORT     TSTM      71  71  98 SW6       29.86R
DECATUR        LGT RAIN  70  68  92 SW18G30   29.88R
DENTON         LGT RAIN  72  66  81 S16G23    29.83R
MCKINNEY       CLOUDY    73  67  81 S17       29.82R
GREENVILLE     CLOUDY    70  63  78 S8        29.82R
ROCKWALL       CLOUDY    72  68  88 S14G21    29.81S
TERRELL        CLOUDY    72  67  84 S12       29.81S
WAXAHACHIE     CLOUDY    71  69  91 S8G16     29.84R
CLEBURNE       TSTM      68  66  94 NW16G22   29.89R
GRANBURY         N/A     66  64  92 N5        29.84F THUNDER
$$

TXZ083>090-098>101-113>116-127>130-139>142-154-155-270500-
WESTERN NORTH TEXAS

CITY           SKY/WX    TMP DP  RH WIND       PRES   REMARKS
WICHITA FALLS  CLOUDY    73  67  81 S12       29.71S
WF-KICKAPOO    CLOUDY    75  66  75 S12G29    29.72S
VERNON         CLOUDY    70  65  85 SE17      29.72R
ABILENE        CLOUDY    67  63  87 SE12      29.75R
BRECKENRIDGE   CLOUDY    68  65  88 SE16G24   29.73F
GRAHAM         CLOUDY    69  66  91 S5        29.72R
MINERAL WELLS  TSTM      65  64  97 SE9G24    29.77F
STEPHENVILLE     N/A     65  63  92 E3        29.83F
COMANCHE       CLOUDY    64  64 100 S8        29.81F
BROWNWOOD      CLOUDY    66  66 100 E12       29.78F
COLEMAN        CLOUDY    66  61  82 E6        29.78F
$$

TXZ143>147-156>162-174-175-270500-
CENTRAL TEXAS

CITY           SKY/WX    TMP DP  RH WIND       PRES   REMARKS
WACO           CLOUDY    71  67  87 SE16      29.80F
WACO-MCGREGOR  CLOUDY   N/A N/A N/A SE13G22     N/A
HILLSBORO      CLOUDY    71  68  89 SE14G23   29.81F
CORSICANA      CLOUDY    74  68  81 S17       29.80F
MEXIA          CLOUDY    72  70  95 SE15G22   29.80F
HEARNE         CLOUDY    70  68  95 SE7       29.85F
CAMERON        CLOUDY    71  69  94 SE5       29.84R
TEMPLE         PTCLDY    70  68  93 SE15      29.82F
KILLEEN        CLOUDY    70  68  94 SE14      29.80F THUNDER
KILLEEN-SKYLRK CLOUDY    71  68  90 SE12      29.82F
FORT HOOD      CLOUDY    69  68  95 SE14      29.79F
GATESVILLE     CLOUDY    72  68  88 S12       29.82F
HAMILTON       TSTM      70  65  85 MISG      29.83F
LAMPASAS       CLOUDY    71  69  94 SE10G20   29.82R THUNDER
$$

TXZ095>097-106>112-122>126-135>138-148>153-164>167-270500-
EAST TEXAS

CITY           SKY/WX    TMP DP  RH WIND       PRES   REMARKS
PARIS          CLOUDY    70  61  73 S9        29.83R
SULPHUR SPRNGS CLOUDY    71  65  81 S7        29.85R
MOUNT PLEASANT CLOUDY    69  69 100 CALM      29.87R
GILMER         CLOUDY    66  64  94 CALM      29.84R
MINEOLA        CLOUDY    72  64  78 SE6       29.83R
TYLER          CLOUDY    71  63  75 S12       29.81R
LONGVIEW       CLOUDY    71  65  81 SE8       29.82R
MARSHALL       MOCLDY    70  66  88 CALM      29.88R
ATHENS         CLOUDY    70  68  94 S10       29.80S
PALESTINE      CLOUDY    72  69  90 SE10G20   29.83F
JACKSONVILLE   CLOUDY    72  69  92 S18G24    29.85R
HENDERSON      CLOUDY    71  65  82 S7        29.84R
CENTER         FAIR      76  70  81 S9G20     29.83R
NACOGDOCHES    CLOUDY    72  68  88 S20G26    29.86R
$$

SUPPLEMENTAL OBSERVATIONS (CENTRAL)

CITY           SKY/WX    TMP DP  RH WIND       PRES   REMARKS
CADDO GRASSLND   N/A     72  66  83 S12         N/A
PAT MAYSE LAKE   N/A     72  68  88 SE10        N/A
GREENVILLE       N/A     70  64  83 S7          N/A
CEDAR HILL       N/A     72  66  83 SW6G17      N/A
MCGREGOR         N/A     72  66  83 S10         N/A
$$

SUPPLEMENTAL OBSERVATIONS (WEST)

CITY           SKY/WX    TMP DP  RH WIND       PRES   REMARKS
MILLERS CREEK    N/A     72  64  78 S14G26      N/A
LBJ GRASSLAND    N/A     72  66  83 S12         N/A
HAMBY            N/A     66  61  82 SE10G20     N/A
IVIE RESERVOIR   N/A     73  68  83 E20G26      N/A
COLORADO BEND    N/A     72  68  88 S10         N/A
$$

SUPPLEMENTAL OBSERVATIONS (EAST)

CITY           SKY/WX    TMP DP  RH WIND       PRES   REMARKS
CLARKSVILLE      N/A     70  66  88 S6          N/A
GILMER           N/A     68  63  83 N1          N/A
HENDERSON        N/A     72  64  78 S6          N/A
N SABINE NF      N/A     73  70  88 MISG        N/A
S SABINE NF      N/A     73  70  88 SE10G24     N/A
$$

SUPPLEMENTAL OBSERVATIONS ARE A COLLECTION OF AUTOMATED INSTRUMENTS
THAT ARE MAINTAINED BY A VARIETY OF FEDERAL AND STATE AGENCIES.
CERTAIN ELEMENTS...SUCH AS HUMIDITY VALUES AND SUSTAINED WIND
SPEEDS...MAY BE APPROXIMATED.





USA.gov is the U.S. government's official web portal to all federal, state and local government web resources and services.